Time,TemperatureF,DewpointF,PressureIn,WindDirection,WindDirectionDegrees,WindSpeedMPH,WindSpeedGustMPH,Humidity,HourlyPrecipIn,Conditions,Clouds,dailyrainin,SoftwareType,DateUTC
2013-04-29 00:04:00,65.7,57.1,29.75,ESE,110,0.0,0.0,73,0.00,,,-99.99,Meteorologica,2013-04-29 05:04:00,
2013-04-29 00:09:00,65.4,57.0,29.75,SSE,153,0.0,0.0,73,0.00,,,-99.99,Meteorologica,2013-04-29 05:09:00,
2013-04-29 00:14:00,65.3,57.0,29.75,East,90,1.6,2.7,74,0.00,,,-99.99,Meteorologica,2013-04-29 05:14:00,
2013-04-29 00:19:00,65.1,56.8,29.75,SSE,155,0.8,0.0,74,0.00,,,-99.99,Meteorologica,2013-04-29 05:19:00,
2013-04-29 00:24:00,65.0,56.9,29.75,SE,139,0.0,0.0,74,0.00,,,-99.99,Meteorologica,2013-04-29 05:24:00,
2013-04-29 00:29:00,64.8,56.8,29.75,SSE,149,0.0,0.0,74,0.00,,,-99.99,Meteorologica,2013-04-29 05:29:00,
2013-04-29 00:34:00,64.6,56.6,29.75,SSE,149,0.0,0.0,74,0.00,,,-99.99,Meteorologica,2013-04-29 05:34:00,
2013-04-29 00:39:00,64.3,56.4,29.75,South,172,0.6,0.0,75,0.00,,,-99.99,Meteorologica,2013-04-29 05:39:00,
2013-04-29 00:44:00,64.1,56.3,29.75,South,172,0.0,0.0,75,0.00,,,-99.99,Meteorologica,2013-04-29 05:44:00,
2013-04-29 00:49:00,63.8,56.2,29.75,ESE,122,0.0,0.0,76,0.00,,,-99.99,Meteorologica,2013-04-29 05:49:00,
2013-04-29 00:54:00,63.6,56.1,29.75,SSE,167,1.6,5.1,76,0.00,,,-99.99,Meteorologica,2013-04-29 05:54:00,
2013-04-29 00:59:00,63.3,56.0,29.75,ESE,119,0.4,0.0,76,0.00,,,-99.99,Meteorologica,2013-04-29 05:59:00,
2013-04-29 01:04:00,63.2,56.0,29.75,ESE,119,0.0,0.0,77,0.00,,,-99.99,Meteorologica,2013-04-29 06:04:00,
2013-04-29 01:09:00,62.9,55.7,29.75,SSE,151,0.0,0.0,77,0.00,,,-99.99,Meteorologica,2013-04-29 06:09:00,
2013-04-29 01:14:00,62.8,55.8,29.75,SSE,151,0.0,0.0,77,0.00,,,-99.99,Meteorologica,2013-04-29 06:14:00,
2013-04-29 01:19:00,62.6,55.7,29.75,SSE,151,0.0,0.0,78,0.00,,,-99.99,Meteorologica,2013-04-29 06:19:00,
2013-04-29 01:24:00,62.4,55.6,29.75,SSE,151,0.0,0.0,78,0.00,,,-99.99,Meteorologica,2013-04-29 06:24:00,
2013-04-29 01:29:00,62.2,55.5,29.75,SSE,151,0.0,0.0,78,0.00,,,-99.99,Meteorologica,2013-04-29 06:29:00,
2013-04-29 01:34:00,61.9,55.3,29.75,SSE,151,0.0,0.0,78,0.00,,,-99.99,Meteorologica,2013-04-29 06:34:00,
2013-04-29 01:39:00,61.8,55.4,29.75,SSE,151,0.0,0.0,79,0.00,,,-99.99,Meteorologica,2013-04-29 06:39:00,
2013-04-29 01:44:00,61.5,55.3,29.75,SSE,151,0.0,0.0,79,0.00,,,-99.99,Meteorologica,2013-04-29 06:44:00,
2013-04-29 01:49:00,61.2,55.1,29.75,SSE,151,0.0,0.0,80,0.00,,,-99.99,Meteorologica,2013-04-29 06:49:00,
2013-04-29 01:54:00,61.1,55.0,29.75,SSE,151,0.0,0.0,80,0.00,,,-99.99,Meteorologica,2013-04-29 06:54:00,
2013-04-29 01:59:00,60.9,54.9,29.75,SSE,151,0.0,0.0,80,0.00,,,-99.99,Meteorologica,2013-04-29 06:59:00,
2013-04-29 02:04:00,60.7,54.8,29.76,SSE,151,0.0,0.0,80,0.00,,,-99.99,Meteorologica,2013-04-29 07:04:00,
2013-04-29 02:09:00,60.5,54.7,29.76,SSE,151,0.0,0.0,81,0.00,,,-99.99,Meteorologica,2013-04-29 07:09:00,
2013-04-29 02:14:00,60.5,54.8,29.76,SSE,151,0.0,0.0,81,0.00,,,-99.99,Meteorologica,2013-04-29 07:14:00,
2013-04-29 02:19:00,60.2,54.7,29.76,SSE,151,0.0,0.0,82,0.00,,,-99.99,Meteorologica,2013-04-29 07:19:00,
2013-04-29 02:24:00,59.6,54.6,29.77,SSE,151,0.0,0.0,83,0.00,,,-99.99,Meteorologica,2013-04-29 07:24:00,
2013-04-29 02:29:00,59.1,54.2,29.77,SSE,151,0.0,0.0,83,0.00,,,-99.99,Meteorologica,2013-04-29 07:29:00,
2013-04-29 02:34:00,58.7,54.1,29.77,SSE,151,0.0,0.0,84,0.00,,,-99.99,Meteorologica,2013-04-29 07:34:00,
2013-04-29 02:39:00,58.4,54.0,29.77,SSE,151,0.0,0.0,85,0.00,,,-99.99,Meteorologica,2013-04-29 07:39:00,
2013-04-29 02:44:00,58.1,53.9,29.77,SSE,151,0.0,0.0,85,0.00,,,-99.99,Meteorologica,2013-04-29 07:44:00,
2013-04-29 02:49:00,57.9,53.8,29.76,SSE,151,0.0,0.0,86,0.00,,,-99.99,Meteorologica,2013-04-29 07:49:00,
2013-04-29 02:54:00,57.8,53.7,29.77,SSE,151,0.0,0.0,86,0.00,,,-99.99,Meteorologica,2013-04-29 07:54:00,
2013-04-29 02:59:00,57.5,53.6,29.77,SSE,151,0.0,0.0,86,0.00,,,-99.99,Meteorologica,2013-04-29 07:59:00,
2013-04-29 03:04:00,57.2,53.3,29.77,SSE,151,0.0,0.0,86,0.00,,,-99.99,Meteorologica,2013-04-29 08:04:00,
2013-04-29 03:09:00,57.0,53.3,29.76,SSE,151,0.0,0.0,87,0.00,,,-99.99,Meteorologica,2013-04-29 08:09:00,
2013-04-29 03:14:00,56.9,53.2,29.75,SSE,151,0.0,0.0,87,0.00,,,-99.99,Meteorologica,2013-04-29 08:14:00,
2013-04-29 03:19:00,56.8,53.2,29.75,SSE,151,0.0,0.0,87,0.00,,,-99.99,Meteorologica,2013-04-29 08:19:00,
2013-04-29 03:24:00,56.8,53.3,29.75,SSE,151,0.0,0.0,88,0.00,,,-99.99,Meteorologica,2013-04-29 08:24:00,
2013-04-29 03:29:00,57.0,53.6,29.74,South,172,4.2,4.2,88,0.00,,,-99.99,Meteorologica,2013-04-29 08:29:00,
2013-04-29 03:34:00,57.4,53.6,29.75,South,191,0.8,0.0,87,0.00,,,-99.99,Meteorologica,2013-04-29 08:34:00,
2013-04-29 03:39:00,57.8,53.7,29.74,South,177,0.0,0.0,86,0.00,,,-99.99,Meteorologica,2013-04-29 08:39:00,
2013-04-29 03:44:00,57.9,53.6,29.74,South,177,0.0,0.0,85,0.00,,,-99.99,Meteorologica,2013-04-29 08:44:00,
2013-04-29 03:49:00,57.7,53.2,29.75,South,177,0.0,0.0,85,0.00,,,-99.99,Meteorologica,2013-04-29 08:49:00,
2013-04-29 03:54:00,57.1,52.8,29.75,South,177,0.0,0.0,85,0.00,,,-99.99,Meteorologica,2013-04-29 08:54:00,
2013-04-29 03:59:00,56.5,52.5,29.75,South,177,0.0,0.0,86,0.00,,,-99.99,Meteorologica,2013-04-29 08:59:00,
2013-04-29 04:04:00,56.2,52.5,29.75,South,177,0.0,0.0,87,0.00,,,-99.99,Meteorologica,2013-04-29 09:04:00,
2013-04-29 04:09:00,56.0,52.4,29.75,South,177,0.0,0.0,87,0.00,,,-99.99,Meteorologica,2013-04-29 09:09:00,
2013-04-29 04:14:00,56.0,52.5,29.75,South,177,0.0,0.0,88,0.00,,,-99.99,Meteorologica,2013-04-29 09:14:00,
2013-04-29 04:19:00,56.0,52.4,29.75,South,177,0.0,0.0,87,0.00,,,-99.99,Meteorologica,2013-04-29 09:19:00,
2013-04-29 04:24:00,56.2,52.6,29.75,South,177,0.0,0.0,87,0.00,,,-99.99,Meteorologica,2013-04-29 09:24:00,
2013-04-29 04:29:00,56.4,52.7,29.75,South,177,0.0,0.0,87,0.00,,,-99.99,Meteorologica,2013-04-29 09:29:00,
2013-04-29 04:34:00,56.6,52.8,29.75,South,177,0.0,0.0,87,0.00,,,-99.99,Meteorologica,2013-04-29 09:34:00,
2013-04-29 04:39:00,56.7,52.9,29.75,South,177,0.0,0.0,87,0.00,,,-99.99,Meteorologica,2013-04-29 09:39:00,
2013-04-29 04:44:00,56.7,52.8,29.75,South,177,0.0,0.0,86,0.00,,,-99.99,Meteorologica,2013-04-29 09:44:00,
2013-04-29 04:49:00,56.7,52.8,29.75,South,177,0.0,0.0,86,0.00,,,-99.99,Meteorologica,2013-04-29 09:49:00,
2013-04-29 04:54:00,56.7,52.7,29.75,South,177,0.0,0.0,86,0.00,,,-99.99,Meteorologica,2013-04-29 09:54:00,
2013-04-29 04:59:00,56.5,52.6,29.75,South,177,0.0,0.0,86,0.00,,,-99.99,Meteorologica,2013-04-29 09:59:00,
2013-04-29 05:04:00,56.2,52.3,29.74,South,177,0.0,0.0,86,0.00,,,-99.99,Meteorologica,2013-04-29 10:04:00,
2013-04-29 05:09:00,56.0,52.2,29.74,South,177,0.0,0.0,87,0.00,,,-99.99,Meteorologica,2013-04-29 10:09:00,
2013-04-29 05:14:00,55.1,52.2,29.75,South,177,0.0,0.0,90,0.00,,,-99.99,Meteorologica,2013-04-29 10:14:00,
2013-04-29 05:19:00,54.1,51.3,29.75,South,177,0.0,0.0,90,0.00,,,-99.99,Meteorologica,2013-04-29 10:19:00,
2013-04-29 05:24:00,53.6,50.9,29.75,South,177,0.0,0.0,90,0.00,,,-99.99,Meteorologica,2013-04-29 10:24:00,
2013-04-29 05:29:00,53.4,50.7,29.75,South,177,0.0,0.0,90,0.00,,,-99.99,Meteorologica,2013-04-29 10:29:00,
2013-04-29 05:34:00,53.2,50.5,29.75,South,177,0.0,0.0,90,0.00,,,-99.99,Meteorologica,2013-04-29 10:34:00,
2013-04-29 05:39:00,53.2,50.5,29.75,South,177,0.0,0.0,90,0.00,,,-99.99,Meteorologica,2013-04-29 10:39:00,
2013-04-29 05:44:00,53.2,50.6,29.75,South,177,0.0,0.0,91,0.00,,,-99.99,Meteorologica,2013-04-29 10:44:00,
2013-04-29 05:49:00,53.2,50.6,29.75,South,177,0.0,0.0,91,0.00,,,-99.99,Meteorologica,2013-04-29 10:49:00,
2013-04-29 05:54:00,53.3,50.8,29.75,South,177,0.0,0.0,91,0.00,,,-99.99,Meteorologica,2013-04-29 10:54:00,
2013-04-29 05:59:00,53.4,50.8,29.76,South,177,0.0,0.0,91,0.00,,,-99.99,Meteorologica,2013-04-29 10:59:00,
2013-04-29 06:04:00,53.3,50.7,29.76,South,189,1.8,3.2,91,0.00,,,-99.99,Meteorologica,2013-04-29 11:04:00,
2013-04-29 06:09:00,53.4,50.8,29.76,South,170,0.0,0.0,91,0.00,,,-99.99,Meteorologica,2013-04-29 11:09:00,
2013-04-29 06:14:00,53.5,50.9,29.76,South,170,0.0,0.0,91,0.00,,,-99.99,Meteorologica,2013-04-29 11:14:00,
2013-04-29 06:19:00,53.3,50.7,29.76,South,170,0.0,0.0,91,0.00,,,-99.99,Meteorologica,2013-04-29 11:19:00,
2013-04-29 06:24:00,53.3,50.7,29.77,South,170,0.0,0.0,91,0.00,,,-99.99,Meteorologica,2013-04-29 11:24:00,
2013-04-29 06:29:00,53.2,50.6,29.77,South,170,0.0,0.0,91,0.00,,,-99.99,Meteorologica,2013-04-29 11:29:00,
2013-04-29 06:34:00,53.1,50.5,29.77,South,170,0.0,0.0,91,0.00,,,-99.99,Meteorologica,2013-04-29 11:34:00,
2013-04-29 06:39:00,53.0,50.5,29.76,South,170,0.0,0.0,91,0.00,,,-99.99,Meteorologica,2013-04-29 11:39:00,
2013-04-29 06:44:00,53.1,50.6,29.77,South,170,0.0,0.0,91,0.00,,,-99.99,Meteorologica,2013-04-29 11:44:00,
2013-04-29 06:49:00,53.1,50.6,29.76,South,170,0.0,0.0,91,0.00,,,-99.99,Meteorologica,2013-04-29 11:49:00,
2013-04-29 06:54:00,53.0,50.5,29.77,South,170,0.0,0.0,91,0.00,,,-99.99,Meteorologica,2013-04-29 11:54:00,
2013-04-29 06:59:00,53.1,50.6,29.77,South,170,0.0,0.0,91,0.00,,,-99.99,Meteorologica,2013-04-29 11:59:00,
2013-04-29 07:04:00,53.1,50.6,29.77,South,170,0.0,0.0,91,0.00,,,-99.99,Meteorologica,2013-04-29 12:04:00,
2013-04-29 07:09:00,53.1,50.6,29.77,South,170,0.0,0.0,91,0.00,,,-99.99,Meteorologica,2013-04-29 12:09:00,
2013-04-29 07:14:00,53.2,50.7,29.76,South,170,0.0,0.0,91,0.00,,,-99.99,Meteorologica,2013-04-29 12:14:00,
2013-04-29 07:19:00,53.3,50.8,29.76,South,170,0.0,0.0,91,0.00,,,-99.99,Meteorologica,2013-04-29 12:19:00,
2013-04-29 07:24:00,53.6,51.1,29.76,North,359,0.1,0.0,91,0.00,,,-99.99,Meteorologica,2013-04-29 12:24:00,
2013-04-29 07:29:00,54.0,51.5,29.76,North,359,0.0,0.0,91,0.00,,,-99.99,Meteorologica,2013-04-29 12:29:00,
2013-04-29 07:34:00,54.2,51.6,29.76,North,359,0.0,0.0,90,0.00,,,-99.99,Meteorologica,2013-04-29 12:34:00,
2013-04-29 07:39:00,54.3,51.7,29.76,North,359,0.0,0.0,90,0.00,,,-99.99,Meteorologica,2013-04-29 12:39:00,
2013-04-29 07:44:00,54.7,52.0,29.76,North,359,0.0,0.0,90,0.00,,,-99.99,Meteorologica,2013-04-29 12:44:00,
2013-04-29 07:49:00,55.5,52.7,29.76,North,359,0.0,0.0,90,0.00,,,-99.99,Meteorologica,2013-04-29 12:49:00,
2013-04-29 07:54:00,56.1,53.1,29.76,North,359,0.0,0.0,89,0.00,,,-99.99,Meteorologica,2013-04-29 12:54:00,
2013-04-29 07:59:00,56.7,53.4,29.76,North,359,0.0,0.0,88,0.00,,,-99.99,Meteorologica,2013-04-29 12:59:00,
2013-04-29 08:04:00,57.2,53.7,29.77,North,359,0.0,0.0,88,0.00,,,-99.99,Meteorologica,2013-04-29 13:04:00,
2013-04-29 08:09:00,57.7,53.9,29.77,North,359,0.0,0.0,87,0.00,,,-99.99,Meteorologica,2013-04-29 13:09:00,
2013-04-29 08:14:00,58.2,54.3,29.76,North,359,0.0,0.0,86,0.00,,,-99.99,Meteorologica,2013-04-29 13:14:00,
2013-04-29 08:19:00,59.0,54.7,29.75,South,175,3.8,3.8,85,0.00,,,-99.99,Meteorologica,2013-04-29 13:19:00,
2013-04-29 08:24:00,59.4,54.8,29.77,WNW,300,2.6,3.3,84,0.00,,,-99.99,Meteorologica,2013-04-29 13:24:00,
2013-04-29 08:29:00,60.2,55.6,29.78,NNW,343,1.5,0.0,85,0.00,,,-99.99,Meteorologica,2013-04-29 13:29:00,
2013-04-29 08:34:00,61.0,56.1,29.76,NNE,31,0.7,0.0,83,0.00,,,-99.99,Meteorologica,2013-04-29 13:34:00,
2013-04-29 08:39:00,61.5,56.3,29.78,NNW,337,1.2,3.2,83,0.00,,,-99.99,Meteorologica,2013-04-29 13:39:00,
2013-04-29 08:44:00,61.8,56.2,29.77,North,353,1.7,3.2,81,0.00,,,-99.99,Meteorologica,2013-04-29 13:44:00,
2013-04-29 08:49:00,62.0,56.5,29.78,NNE,21,1.8,0.0,82,0.00,,,-99.99,Meteorologica,2013-04-29 13:49:00,
2013-04-29 08:54:00,62.4,56.6,29.78,NNE,19,0.0,0.0,81,0.00,,,-99.99,Meteorologica,2013-04-29 13:54:00,
2013-04-29 08:59:00,62.6,56.7,29.78,NNE,19,0.0,0.0,81,0.00,,,-99.99,Meteorologica,2013-04-29 13:59:00,
2013-04-29 09:04:00,63.1,56.9,29.76,NNE,19,0.0,0.0,80,0.00,,,-99.99,Meteorologica,2013-04-29 14:04:00,
2013-04-29 09:09:00,63.5,57.0,29.77,NNE,19,0.0,0.0,79,0.00,,,-99.99,Meteorologica,2013-04-29 14:09:00,
2013-04-29 09:14:00,64.0,57.4,29.77,NNE,19,0.0,0.0,79,0.00,,,-99.99,Meteorologica,2013-04-29 14:14:00,
2013-04-29 09:19:00,64.8,57.9,29.77,NNE,14,0.0,0.0,77,0.00,,,-99.99,Meteorologica,2013-04-29 14:19:00,
2013-04-29 09:24:00,65.6,58.0,29.77,NNE,14,0.0,0.0,76,0.00,,,-99.99,Meteorologica,2013-04-29 14:24:00,
2013-04-29 09:29:00,66.0,57.6,29.76,North,9,1.0,0.0,74,0.00,,,-99.99,Meteorologica,2013-04-29 14:29:00,
2013-04-29 09:34:00,66.2,57.4,29.77,West,262,1.0,0.0,72,0.00,,,-99.99,Meteorologica,2013-04-29 14:34:00,
2013-04-29 09:39:00,66.1,58.0,29.77,NNE,17,4.3,5.8,74,0.00,,,-99.99,Meteorologica,2013-04-29 14:39:00,
2013-04-29 09:44:00,66.3,57.7,29.76,North,11,0.0,0.0,73,0.00,,,-99.99,Meteorologica,2013-04-29 14:44:00,
2013-04-29 09:49:00,66.6,58.2,29.76,North,11,0.0,0.0,73,0.00,,,-99.99,Meteorologica,2013-04-29 14:49:00,
2013-04-29 09:54:00,67.1,57.8,29.75,North,11,0.0,0.0,71,0.00,,,-99.99,Meteorologica,2013-04-29 14:54:00,
2013-04-29 09:59:00,67.7,58.7,29.76,NE,43,0.0,0.0,72,0.00,,,-99.99,Meteorologica,2013-04-29 14:59:00,
2013-04-29 10:04:00,67.8,58.8,29.76,NNE,19,0.5,0.0,72,0.00,,,-99.99,Meteorologica,2013-04-29 15:04:00,
2013-04-29 10:09:00,68.0,58.5,29.75,NNE,19,0.0,0.0,71,0.00,,,-99.99,Meteorologica,2013-04-29 15:09:00,
2013-04-29 10:14:00,68.2,58.8,29.76,ENE,57,0.0,0.0,71,0.00,,,-99.99,Meteorologica,2013-04-29 15:14:00,
2013-04-29 10:19:00,68.5,58.1,29.76,WNW,293,0.0,0.0,69,0.00,,,-99.99,Meteorologica,2013-04-29 15:19:00,
2013-04-29 10:24:00,68.6,58.8,29.76,WNW,293,0.0,0.0,70,0.00,,,-99.99,Meteorologica,2013-04-29 15:24:00,
2013-04-29 10:29:00,68.6,59.2,29.75,WNW,289,0.0,0.0,71,0.00,,,-99.99,Meteorologica,2013-04-29 15:29:00,
2013-04-29 10:34:00,68.6,59.0,29.76,North,2,0.6,0.0,71,0.00,,,-99.99,Meteorologica,2013-04-29 15:34:00,
2013-04-29 10:39:00,68.8,58.9,29.76,NNW,343,0.0,0.0,70,0.00,,,-99.99,Meteorologica,2013-04-29 15:39:00,
2013-04-29 10:44:00,69.1,58.8,29.75,South,170,0.7,0.0,69,0.00,,,-99.99,Meteorologica,2013-04-29 15:44:00,
2013-04-29 10:49:00,69.1,59.2,29.75,South,170,0.0,0.0,70,0.00,,,-99.99,Meteorologica,2013-04-29 15:49:00,
2013-04-29 10:54:00,69.5,59.2,29.75,NW,307,1.3,0.0,69,0.00,,,-99.99,Meteorologica,2013-04-29 15:54:00,
2013-04-29 10:59:00,70.2,59.2,29.75,South,172,1.8,3.2,67,0.00,,,-99.99,Meteorologica,2013-04-29 15:59:00,
2013-04-29 11:04:00,70.5,59.3,29.75,SE,129,0.0,0.0,67,0.00,,,-99.99,Meteorologica,2013-04-29 16:04:00,
2013-04-29 11:09:00,70.8,58.6,29.75,West,265,2.5,0.0,64,0.00,,,-99.99,Meteorologica,2013-04-29 16:09:00,
2013-04-29 11:14:00,71.3,58.6,29.75,South,190,1.5,0.0,63,0.00,,,-99.99,Meteorologica,2013-04-29 16:14:00,
2013-04-29 11:19:00,71.8,59.0,29.75,ESE,117,0.6,0.0,63,0.00,,,-99.99,Meteorologica,2013-04-29 16:19:00,
2013-04-29 11:24:00,72.1,58.4,29.75,ESE,103,0.0,0.0,61,0.00,,,-99.99,Meteorologica,2013-04-29 16:24:00,
2013-04-29 11:29:00,72.7,58.9,29.75,SSE,168,4.7,4.7,61,0.00,,,-99.99,Meteorologica,2013-04-29 16:29:00,
2013-04-29 11:34:00,73.1,58.6,29.75,SE,132,0.0,0.0,59,0.00,,,-99.99,Meteorologica,2013-04-29 16:34:00,
2013-04-29 11:39:00,73.3,58.5,29.75,WNW,299,1.3,5.3,59,0.00,,,-99.99,Meteorologica,2013-04-29 16:39:00,
2013-04-29 11:44:00,73.5,58.0,29.74,WNW,303,4.1,0.0,58,0.00,,,-99.99,Meteorologica,2013-04-29 16:44:00,
2013-04-29 11:49:00,73.5,58.5,29.74,SW,221,0.0,0.0,59,0.00,,,-99.99,Meteorologica,2013-04-29 16:49:00,
2013-04-29 11:54:00,74.0,59.0,29.74,SW,221,0.0,0.0,59,0.00,,,-99.99,Meteorologica,2013-04-29 16:54:00,
2013-04-29 11:59:00,74.3,58.1,29.73,SW,221,0.0,0.0,56,0.00,,,-99.99,Meteorologica,2013-04-29 16:59:00,
2013-04-29 12:04:00,74.5,57.6,29.73,West,261,2.6,0.0,55,0.00,,,-99.99,Meteorologica,2013-04-29 17:04:00,
2013-04-29 12:09:00,74.9,58.2,29.73,South,184,1.2,0.0,56,0.00,,,-99.99,Meteorologica,2013-04-29 17:09:00,
2013-04-29 12:14:00,75.0,57.4,29.73,WSW,256,3.8,0.0,54,0.00,,,-99.99,Meteorologica,2013-04-29 17:14:00,
2013-04-29 12:19:00,75.7,57.9,29.73,West,271,0.0,0.0,54,0.00,,,-99.99,Meteorologica,2013-04-29 17:19:00,
2013-04-29 12:24:00,75.8,56.9,29.72,NW,304,0.7,0.0,51,0.00,,,-99.99,Meteorologica,2013-04-29 17:24:00,
2013-04-29 12:29:00,75.9,57.0,29.72,WNW,289,0.0,0.0,54,0.00,,,-99.99,Meteorologica,2013-04-29 17:29:00,
2013-04-29 12:34:00,76.3,58.3,29.73,WNW,289,0.0,0.0,53,0.00,,,-99.99,Meteorologica,2013-04-29 17:34:00,
2013-04-29 12:39:00,76.6,58.4,29.72,WSW,239,0.9,2.8,51,0.00,,,-99.99,Meteorologica,2013-04-29 17:39:00,
2013-04-29 12:44:00,76.6,58.3,29.72,WNW,302,4.0,5.2,52,0.00,,,-99.99,Meteorologica,2013-04-29 17:44:00,
2013-04-29 12:49:00,76.8,58.5,29.72,NNE,21,0.0,0.0,53,0.00,,,-99.99,Meteorologica,2013-04-29 17:49:00,
2013-04-29 12:54:00,77.0,59.0,29.71,NE,43,0.0,0.0,53,0.00,,,-99.99,Meteorologica,2013-04-29 17:54:00,
2013-04-29 12:59:00,77.0,59.0,29.71,ENE,59,1.8,4.8,53,0.00,,,-99.99,Meteorologica,2013-04-29 17:59:00,
2013-04-29 13:04:00,77.5,58.9,29.70,ENE,59,0.0,0.0,52,0.00,,,-99.99,Meteorologica,2013-04-29 18:04:00,
2013-04-29 13:09:00,77.7,58.5,29.70,South,183,3.5,0.0,51,0.00,,,-99.99,Meteorologica,2013-04-29 18:09:00,
2013-04-29 13:14:00,78.0,58.8,29.70,SW,232,0.0,0.0,51,0.00,,,-99.99,Meteorologica,2013-04-29 18:14:00,
2013-04-29 13:19:00,78.7,58.0,29.70,SE,128,2.6,0.0,49,0.00,,,-99.99,Meteorologica,2013-04-29 18:19:00,
2013-04-29 13:24:00,79.1,57.7,29.70,SE,136,0.0,0.0,47,0.00,,,-99.99,Meteorologica,2013-04-29 18:24:00,
2013-04-29 13:29:00,79.4,55.0,29.70,East,91,1.0,0.0,43,0.00,,,-99.99,Meteorologica,2013-04-29 18:29:00,
2013-04-29 13:34:00,80.0,55.5,29.69,SE,125,0.0,0.0,43,0.00,,,-99.99,Meteorologica,2013-04-29 18:34:00,
2013-04-29 13:39:00,80.4,56.8,29.70,SE,129,0.0,0.0,44,0.00,,,-99.99,Meteorologica,2013-04-29 18:39:00,
2013-04-29 13:44:00,81.1,57.1,29.69,SW,235,3.1,3.4,44,0.00,,,-99.99,Meteorologica,2013-04-29 18:44:00,
2013-04-29 13:49:00,81.3,55.6,29.68,South,177,2.0,0.0,41,0.00,,,-99.99,Meteorologica,2013-04-29 18:49:00,
2013-04-29 13:54:00,81.6,57.9,29.69,ESE,119,1.6,7.6,44,0.00,,,-99.99,Meteorologica,2013-04-29 18:54:00,
2013-04-29 13:59:00,82.1,57.3,29.68,South,173,0.0,6.9,42,0.00,,,-99.99,Meteorologica,2013-04-29 18:59:00,
2013-04-29 14:04:00,81.8,55.9,29.68,West,265,3.4,6.9,41,0.00,,,-99.99,Meteorologica,2013-04-29 19:04:00,
2013-04-29 14:09:00,82.0,55.7,29.67,WNW,283,0.0,7.9,40,0.00,,,-99.99,Meteorologica,2013-04-29 19:09:00,
2013-04-29 14:14:00,82.2,56.6,29.67,SE,146,2.5,0.0,41,0.00,,,-99.99,Meteorologica,2013-04-29 19:14:00,
2013-04-29 14:19:00,82.6,55.8,29.67,SSW,204,5.7,9.6,40,0.00,,,-99.99,Meteorologica,2013-04-29 19:19:00,
2013-04-29 14:24:00,82.9,54.3,29.67,SSE,163,4.6,4.8,37,0.00,,,-99.99,Meteorologica,2013-04-29 19:24:00,
2013-04-29 14:29:00,83.6,57.7,29.66,SW,216,5.9,9.0,41,0.00,,,-99.99,Meteorologica,2013-04-29 19:29:00,
2013-04-29 14:34:00,83.2,56.7,29.66,SW,227,8.1,9.1,40,0.00,,,-99.99,Meteorologica,2013-04-29 19:34:00,
2013-04-29 14:39:00,83.7,55.3,29.65,SSW,208,6.5,6.5,38,0.00,,,-99.99,Meteorologica,2013-04-29 19:39:00,
2013-04-29 14:44:00,84.3,56.7,29.65,South,184,5.1,8.6,39,0.00,,,-99.99,Meteorologica,2013-04-29 19:44:00,
2013-04-29 14:49:00,84.0,54.7,29.65,WSW,252,8.9,8.9,36,0.00,,,-99.99,Meteorologica,2013-04-29 19:49:00,
2013-04-29 14:54:00,84.3,56.3,29.65,South,185,7.3,7.3,38,0.00,,,-99.99,Meteorologica,2013-04-29 19:54:00,
2013-04-29 14:59:00,84.4,56.8,29.64,SSW,198,6.7,11.3,39,0.00,,,-99.99,Meteorologica,2013-04-29 19:59:00,
2013-04-29 15:04:00,84.7,57.5,29.64,South,183,6.9,13.7,39,0.00,,,-99.99,Meteorologica,2013-04-29 20:04:00,
2013-04-29 15:09:00,84.6,57.5,29.64,SSE,160,5.2,13.1,39,0.00,,,-99.99,Meteorologica,2013-04-29 20:09:00,
2013-04-29 15:14:00,84.7,57.8,29.64,SE,134,5.9,12.4,40,0.00,,,-99.99,Meteorologica,2013-04-29 20:14:00,
2013-04-29 15:19:00,85.0,58.3,29.63,SSE,166,6.7,0.0,40,0.00,,,-99.99,Meteorologica,2013-04-29 20:19:00,
2013-04-29 15:24:00,85.2,58.0,29.63,SE,144,6.7,6.7,39,0.00,,,-99.99,Meteorologica,2013-04-29 20:24:00,
2013-04-29 15:29:00,84.5,57.9,29.62,SW,224,9.8,9.8,40,0.00,,,-99.99,Meteorologica,2013-04-29 20:29:00,
2013-04-29 15:34:00,85.0,59.8,29.61,SSE,156,3.0,0.0,42,0.00,,,-99.99,Meteorologica,2013-04-29 20:34:00,
2013-04-29 15:39:00,85.6,59.1,29.61,SSE,158,7.8,11.8,40,0.00,,,-99.99,Meteorologica,2013-04-29 20:39:00,
2013-04-29 15:44:00,85.8,59.1,29.61,SW,217,6.1,6.9,39,0.00,,,-99.99,Meteorologica,2013-04-29 20:44:00,
2013-04-29 15:49:00,85.4,57.6,29.60,SSW,199,6.8,13.8,39,0.00,,,-99.99,Meteorologica,2013-04-29 20:49:00,
2013-04-29 15:54:00,84.6,59.3,29.60,ESE,119,3.8,13.9,42,0.00,,,-99.99,Meteorologica,2013-04-29 20:54:00,
2013-04-29 15:59:00,85.0,60.4,29.60,SSE,153,2.9,10.2,43,0.00,,,-99.99,Meteorologica,2013-04-29 20:59:00,
2013-04-29 16:04:00,85.8,59.9,29.60,SE,140,4.9,12.9,41,0.00,,,-99.99,Meteorologica,2013-04-29 21:04:00,
2013-04-29 16:09:00,85.8,58.6,29.59,SW,218,8.6,14.5,39,0.00,,,-99.99,Meteorologica,2013-04-29 21:09:00,
2013-04-29 16:14:00,85.8,57.7,29.60,SSE,155,4.5,13.3,38,0.00,,,-99.99,Meteorologica,2013-04-29 21:14:00,
2013-04-29 16:19:00,86.3,58.7,29.60,SSW,203,7.0,0.0,39,0.00,,,-99.99,Meteorologica,2013-04-29 21:19:00,
2013-04-29 16:24:00,86.5,58.8,29.59,ESE,110,7.2,0.0,39,0.00,,,-99.99,Meteorologica,2013-04-29 21:24:00,
2013-04-29 16:29:00,86.3,56.8,29.59,SW,217,9.0,9.0,36,0.00,,,-99.99,Meteorologica,2013-04-29 21:29:00,
2013-04-29 16:34:00,86.3,57.0,29.59,SSW,208,7.9,7.9,37,0.00,,,-99.99,Meteorologica,2013-04-29 21:34:00,
2013-04-29 16:39:00,86.7,57.9,29.59,South,184,5.6,6.9,37,0.00,,,-99.99,Meteorologica,2013-04-29 21:39:00,
2013-04-29 16:44:00,87.2,58.0,29.59,SSW,199,6.5,12.6,37,0.00,,,-99.99,Meteorologica,2013-04-29 21:44:00,
2013-04-29 16:49:00,87.0,58.3,29.59,WSW,247,5.4,6.9,38,0.00,,,-99.99,Meteorologica,2013-04-29 21:49:00,
2013-04-29 16:54:00,86.9,56.6,29.59,SW,234,8.7,16.7,36,0.00,,,-99.99,Meteorologica,2013-04-29 21:54:00,
2013-04-29 16:59:00,86.8,57.2,29.59,SSW,194,7.4,13.4,36,0.00,,,-99.99,Meteorologica,2013-04-29 21:59:00,
2013-04-29 17:04:00,86.9,55.5,29.59,SSE,155,4.4,15.6,34,0.00,,,-99.99,Meteorologica,2013-04-29 22:04:00,
2013-04-29 17:09:00,86.7,55.0,29.59,SW,221,6.3,10.8,33,0.00,,,-99.99,Meteorologica,2013-04-29 22:09:00,
2013-04-29 17:14:00,87.0,55.4,29.59,SSE,159,6.8,13.0,34,0.00,,,-99.99,Meteorologica,2013-04-29 22:14:00,
2013-04-29 17:19:00,86.8,54.1,29.59,WSW,243,5.5,17.1,33,0.00,,,-99.99,Meteorologica,2013-04-29 22:19:00,
2013-04-29 17:24:00,86.7,53.7,29.59,South,190,10.5,0.0,32,0.00,,,-99.99,Meteorologica,2013-04-29 22:24:00,
2013-04-29 17:29:00,86.2,54.6,29.59,SW,223,7.8,7.8,34,0.00,,,-99.99,Meteorologica,2013-04-29 22:29:00,
2013-04-29 17:34:00,86.1,56.0,29.59,WNW,292,6.3,6.3,35,0.00,,,-99.99,Meteorologica,2013-04-29 22:34:00,
2013-04-29 17:39:00,86.1,56.1,29.59,SSW,201,9.2,9.2,36,0.00,,,-99.99,Meteorologica,2013-04-29 22:39:00,
2013-04-29 17:44:00,85.7,55.1,29.59,SSW,211,8.7,8.7,35,0.00,,,-99.99,Meteorologica,2013-04-29 22:44:00,
2013-04-29 17:49:00,85.6,56.0,29.58,SW,214,6.6,16.4,36,0.00,,,-99.99,Meteorologica,2013-04-29 22:49:00,
2013-04-29 17:54:00,85.8,55.6,29.58,SW,233,8.0,18.2,36,0.00,,,-99.99,Meteorologica,2013-04-29 22:54:00,
2013-04-29 17:59:00,85.9,56.2,29.58,SSW,210,5.7,12.0,36,0.00,,,-99.99,Meteorologica,2013-04-29 22:59:00,
2013-04-29 18:04:00,85.9,57.0,29.58,SW,215,7.2,16.4,37,0.00,,,-99.99,Meteorologica,2013-04-29 23:04:00,
2013-04-29 18:09:00,86.0,57.6,29.57,SSW,200,5.9,12.4,38,0.00,,,-99.99,Meteorologica,2013-04-29 23:09:00,
2013-04-29 18:14:00,86.0,57.1,29.57,WSW,246,2.6,14.9,37,0.00,,,-99.99,Meteorologica,2013-04-29 23:14:00,
2013-04-29 18:19:00,85.8,56.0,29.57,SSW,207,9.3,17.4,36,0.00,,,-99.99,Meteorologica,2013-04-29 23:19:00,
2013-04-29 18:24:00,85.8,56.1,29.57,WSW,253,6.4,20.0,36,0.00,,,-99.99,Meteorologica,2013-04-29 23:24:00,
2013-04-29 18:29:00,85.7,55.7,29.57,SSW,194,8.5,8.5,36,0.00,,,-99.99,Meteorologica,2013-04-29 23:29:00,
2013-04-29 18:34:00,85.4,55.7,29.57,SSW,193,7.0,7.8,36,0.00,,,-99.99,Meteorologica,2013-04-29 23:34:00,
2013-04-29 18:39:00,85.5,56.5,29.57,South,169,6.6,10.2,37,0.00,,,-99.99,Meteorologica,2013-04-29 23:39:00,
2013-04-29 18:44:00,85.3,56.1,29.57,SW,215,7.5,7.8,37,0.00,,,-99.99,Meteorologica,2013-04-29 23:44:00,
2013-04-29 18:49:00,85.3,56.9,29.57,WSW,239,2.8,15.7,38,0.00,,,-99.99,Meteorologica,2013-04-29 23:49:00,
2013-04-29 18:54:00,85.1,56.8,29.57,SSW,201,7.5,12.7,38,0.00,,,-99.99,Meteorologica,2013-04-29 23:54:00,
2013-04-29 18:59:00,84.9,57.4,29.57,WSW,243,6.4,11.3,39,0.00,,,-99.99,Meteorologica,2013-04-29 23:59:00,
2013-04-29 19:04:00,84.6,57.7,29.56,SSW,199,6.0,11.0,40,0.00,,,-99.99,Meteorologica,2013-04-30 00:04:00,
2013-04-29 19:09:00,84.6,58.2,29.56,SSW,202,8.4,13.6,40,0.00,,,-99.99,Meteorologica,2013-04-30 00:09:00,
2013-04-29 19:14:00,84.5,58.6,29.56,SW,220,3.2,9.0,41,0.00,,,-99.99,Meteorologica,2013-04-30 00:14:00,
2013-04-29 19:19:00,84.4,58.5,29.56,SW,218,2.8,8.6,41,0.00,,,-99.99,Meteorologica,2013-04-30 00:19:00,
2013-04-29 19:24:00,84.2,58.8,29.57,SW,215,2.8,6.4,42,0.00,,,-99.99,Meteorologica,2013-04-30 00:24:00,
2013-04-29 19:29:00,84.0,59.2,29.56,South,187,4.1,6.8,43,0.00,,,-99.99,Meteorologica,2013-04-30 00:29:00,
2013-04-29 19:34:00,83.6,59.5,29.56,SW,215,5.4,0.0,44,0.00,,,-99.99,Meteorologica,2013-04-30 00:34:00,
2013-04-29 19:39:00,83.2,59.9,29.55,SSW,205,3.4,4.3,45,0.00,,,-99.99,Meteorologica,2013-04-30 00:39:00,
2013-04-29 19:44:00,82.9,60.2,29.56,SSW,208,3.9,6.8,46,0.00,,,-99.99,Meteorologica,2013-04-30 00:44:00,
2013-04-29 19:49:00,82.6,60.6,29.56,SSW,197,2.0,6.0,47,0.00,,,-99.99,Meteorologica,2013-04-30 00:49:00,
2013-04-29 19:54:00,82.0,60.6,29.56,SW,215,0.0,3.4,48,0.00,,,-99.99,Meteorologica,2013-04-30 00:54:00,
2013-04-29 19:59:00,81.6,60.9,29.56,SW,220,0.0,4.3,49,0.00,,,-99.99,Meteorologica,2013-04-30 00:59:00,
2013-04-29 20:04:00,80.9,60.9,29.56,WSW,239,2.9,5.0,50,0.00,,,-99.99,Meteorologica,2013-04-30 01:04:00,
2013-04-29 20:09:00,80.4,60.5,29.56,SSW,192,1.2,5.8,50,0.00,,,-99.99,Meteorologica,2013-04-30 01:09:00,
2013-04-29 20:14:00,80.3,60.7,29.57,SSW,198,3.4,7.5,51,0.00,,,-99.99,Meteorologica,2013-04-30 01:14:00,
2013-04-29 20:19:00,80.1,60.7,29.56,South,184,1.7,4.6,51,0.00,,,-99.99,Meteorologica,2013-04-30 01:19:00,
2013-04-29 20:24:00,79.9,60.8,29.56,SW,218,1.4,6.1,51,0.00,,,-99.99,Meteorologica,2013-04-30 01:24:00,
2013-04-29 20:29:00,79.5,60.8,29.56,SW,218,0.0,0.0,52,0.00,,,-99.99,Meteorologica,2013-04-30 01:29:00,
2013-04-29 20:34:00,79.2,60.7,29.56,SW,218,0.0,0.0,53,0.00,,,-99.99,Meteorologica,2013-04-30 01:34:00,
2013-04-29 20:39:00,78.5,60.5,29.56,SW,218,0.0,0.0,53,0.00,,,-99.99,Meteorologica,2013-04-30 01:39:00,
2013-04-29 20:44:00,78.2,60.6,29.56,SW,218,0.0,0.0,54,0.00,,,-99.99,Meteorologica,2013-04-30 01:44:00,
2013-04-29 20:49:00,77.8,60.8,29.56,SW,218,0.0,0.0,55,0.00,,,-99.99,Meteorologica,2013-04-30 01:49:00,
2013-04-29 20:54:00,77.2,60.8,29.56,SW,218,0.0,0.0,56,0.00,,,-99.99,Meteorologica,2013-04-30 01:54:00,
2013-04-29 20:59:00,76.5,60.6,29.57,SW,218,0.0,0.0,57,0.00,,,-99.99,Meteorologica,2013-04-30 01:59:00,
2013-04-29 21:04:00,76.0,60.6,29.57,SW,218,0.0,0.0,58,0.00,,,-99.99,Meteorologica,2013-04-30 02:04:00,
2013-04-29 21:09:00,75.8,60.9,29.56,SW,218,0.0,0.0,59,0.00,,,-99.99,Meteorologica,2013-04-30 02:09:00,
2013-04-29 21:14:00,75.2,60.7,29.57,SW,218,0.0,0.0,60,0.00,,,-99.99,Meteorologica,2013-04-30 02:14:00,
2013-04-29 21:19:00,75.0,60.6,29.57,SW,218,0.0,0.0,60,0.00,,,-99.99,Meteorologica,2013-04-30 02:19:00,
2013-04-29 21:24:00,74.8,60.4,29.57,SW,218,0.0,0.0,60,0.00,,,-99.99,Meteorologica,2013-04-30 02:24:00,
2013-04-29 21:29:00,74.7,60.4,29.57,SW,218,0.0,0.0,60,0.00,,,-99.99,Meteorologica,2013-04-30 02:29:00,
2013-04-29 21:34:00,74.5,60.0,29.57,SW,218,0.0,0.0,60,0.00,,,-99.99,Meteorologica,2013-04-30 02:34:00,
2013-04-29 21:39:00,74.6,60.1,29.57,SW,218,0.0,0.0,60,0.00,,,-99.99,Meteorologica,2013-04-30 02:39:00,
2013-04-29 21:44:00,74.3,59.7,29.57,SW,218,0.0,0.0,59,0.00,,,-99.99,Meteorologica,2013-04-30 02:44:00,
2013-04-29 21:49:00,74.2,59.5,29.57,SW,218,0.0,0.0,59,0.00,,,-99.99,Meteorologica,2013-04-30 02:49:00,
2013-04-29 21:54:00,74.2,59.5,29.58,SW,218,0.0,0.0,59,0.00,,,-99.99,Meteorologica,2013-04-30 02:54:00,
2013-04-29 21:59:00,74.1,59.4,29.57,SW,218,0.0,0.0,59,0.00,,,-99.99,Meteorologica,2013-04-30 02:59:00,
2013-04-29 22:04:00,74.0,59.4,29.58,SW,218,0.0,0.0,59,0.00,,,-99.99,Meteorologica,2013-04-30 03:04:00,
2013-04-29 22:09:00,73.9,59.4,29.57,SW,218,0.0,0.0,60,0.00,,,-99.99,Meteorologica,2013-04-30 03:09:00,
2013-04-29 22:14:00,73.9,59.0,29.57,SSW,192,4.0,6.9,59,0.00,,,-99.99,Meteorologica,2013-04-30 03:14:00,
2013-04-29 22:19:00,74.1,58.6,29.57,SSW,199,3.5,7.8,58,0.00,,,-99.99,Meteorologica,2013-04-30 03:19:00,
2013-04-29 22:24:00,74.8,58.6,29.57,South,175,4.1,9.3,56,0.00,,,-99.99,Meteorologica,2013-04-30 03:24:00,
2013-04-29 22:29:00,75.0,58.3,29.57,SSW,193,5.0,9.1,55,0.00,,,-99.99,Meteorologica,2013-04-30 03:29:00,
2013-04-29 22:34:00,75.7,58.2,29.57,SSW,203,4.7,11.9,54,0.00,,,-99.99,Meteorologica,2013-04-30 03:34:00,
2013-04-29 22:39:00,75.8,57.6,29.57,SSW,197,6.9,14.8,53,0.00,,,-99.99,Meteorologica,2013-04-30 03:39:00,
2013-04-29 22:44:00,76.2,57.7,29.57,SSE,151,6.5,15.7,52,0.00,,,-99.99,Meteorologica,2013-04-30 03:44:00,
2013-04-29 22:49:00,76.2,57.5,29.57,South,190,8.1,14.3,52,0.00,,,-99.99,Meteorologica,2013-04-30 03:49:00,
2013-04-29 22:54:00,76.2,57.5,29.57,SSW,207,4.9,10.4,52,0.00,,,-99.99,Meteorologica,2013-04-30 03:54:00,
2013-04-29 22:59:00,76.1,57.5,29.57,SW,218,7.3,10.5,52,0.00,,,-99.99,Meteorologica,2013-04-30 03:59:00,
2013-04-29 23:02:00,76.0,57.1,29.57,SSE,162,7.9,14.3,51,0.00,,,-99.99,Meteorologica,2013-04-30 04:02:00,
2013-04-29 23:03:00,76.1,57.3,29.57,South,187,5.8,14.3,51,0.00,,,-99.99,Meteorologica,2013-04-30 04:03:00,
2013-04-29 23:05:00,75.9,57.0,29.57,SSW,199,8.0,14.8,51,0.00,,,-99.99,Meteorologica,2013-04-30 04:05:00,
2013-04-29 23:06:00,76.0,57.0,29.57,South,182,7.9,14.8,51,0.00,,,-99.99,Meteorologica,2013-04-30 04:06:00,
2013-04-29 23:07:00,76.1,56.8,29.57,SSW,194,9.3,15.3,51,0.00,,,-99.99,Meteorologica,2013-04-30 04:07:00,
2013-04-29 23:12:00,76.1,56.5,29.57,SSW,207,9.6,17.2,50,0.00,,,-99.99,Meteorologica,2013-04-30 04:12:00,
2013-04-29 23:17:00,76.0,56.4,29.57,SSW,209,7.9,11.8,50,0.00,,,-99.99,Meteorologica,2013-04-30 04:17:00,
2013-04-29 23:22:00,76.0,56.1,29.57,SSW,212,8.4,17.5,50,0.00,,,-99.99,Meteorologica,2013-04-30 04:22:00,
2013-04-29 23:27:00,76.3,56.6,29.57,SSW,206,6.5,11.7,50,0.00,,,-99.99,Meteorologica,2013-04-30 04:27:00,
2013-04-29 23:32:00,75.8,55.8,29.57,SSW,213,10.8,17.9,49,0.00,,,-99.99,Meteorologica,2013-04-30 04:32:00,
2013-04-29 23:37:00,76.0,56.0,29.57,SSW,199,8.6,14.9,49,0.00,,,-99.99,Meteorologica,2013-04-30 04:37:00,
2013-04-29 23:42:00,75.7,55.5,29.57,SSW,192,11.4,21.5,49,0.00,,,-99.99,Meteorologica,2013-04-30 04:42:00,
2013-04-29 23:47:00,75.9,55.8,29.57,SSW,197,8.4,18.9,49,0.00,,,-99.99,Meteorologica,2013-04-30 04:47:00,
2013-04-29 23:52:00,75.8,55.9,29.56,South,179,7.8,19.3,50,0.00,,,-99.99,Meteorologica,2013-04-30 04:52:00,
2013-04-29 23:57:00,75.6,55.8,29.56,SSW,209,10.2,19.5,50,0.00,,,-99.99,Meteorologica,2013-04-30 04:57:00,